Showing default

SKY MUSTER 2, 41794

Orbit data source: Space-Track

SKY MUSTER 2, 41794 is a payload satellite owned by NBN (AU) in GEO that was launched on Wed, 05 Oct 2016 UTC via an ARIANE 5ECA launch vehicle from the French Guiana (FRGUI). Payload-class satellites include a variety of spacecraft equipped with specific instruments for various scientific and technological missions. These include communications satellites like Starlink; space stations such as the ISS; scientific satellites like the Hubble; Earth observation satellites from companies like Planet Labs, Umbra, and HawkEye 360; GPS; miniature CubeSats for education and research; and military/defense satellites.

Not visible in the next 10 days
Identifier
41794, 2016-060B
Orbit
GEO
Country
Flag of AUAU / AUS
Related business
Manufacturer
SS/Loral (MDA)
Mission
Operational Commercial Communications
Bus & Motor
SSL-1300, R-4D?
Mass
6,405 kg wet, ~3,500 kg dry
Launch date (UTC)
2016-10-05 (9 years ago)
Launch vehicle
ARIANE 5ECA
Launch site
French Guiana (FRGUI)
Object type
Payload
Rocket body
Debris
Shape & HBR
Box + 2 Pan, 13.0 m
Radar Cross Section
48.493 m², Large (>1 m²)

Expand to show TLE details & history
Last TLE update: 8 hours ago

TLE from 8 hours ago
0 SKY MUSTER 2
1 41794U 16060B   26035.72885242  .00000000  00000-0  00000+0 0  9991
2 41794   0.0151  96.9032 0001623 230.6606 214.5149  1.00268904 34191
Epoch: 2026-02-04T17:29Z
TLE epoch observation values (Epoch: 2026-02-04T17:29:32.849Z)
Latitude
0.03756°
Longitude
144.82559°
Altitude
35,792.543 km
Speed
3.074 km/s
True Right ascension
12h 08m 24s
True Declination
0° 02' 15"
Sunlit
Object was in daylight at epoch
Visualization orbit readout
Latitude
Unknown
Longitude
Unknown
Altitude
Unknown
Speed
Unknown
Apparent Right ascension
Unknown
Apparent Declination
Unknown
Sunlit
N/A
Visualization observer readout
Local Sidereal Time
03:18:30
Azimuth
Unknown
Elevation
Unknown
Doppler factor
Unknown
Orbital elements
Apogee altitude
35,795.317 km
Perigee altitude
35,781.629 km
Semi-major axis
42,166.61 km
Eccentricity
0.00016
Inclination
0.0151°
RAAN
96.9032°
Arg. of periapsis
230.6606°
True anomaly
214.50436°
Mean anomaly
214.5149°
Eccentric anomaly
214.50963°
Mean motion
0.25066 °/min
Orbital period
1,436.19 mins
BSTAR
0
Loading maneuver chart data...
Computing Atmospheric mass density...
Loading historical data...
Loading historical data...
Loading historical data...
Loading historical data...
Loading historical data...
Loading historical data...
Loading historical data...
Other satellites on launch #60 in the year 2016 (2016-10-05 UTC)

Documentation

Showing up to 5 results
|